GFSNE_700_temp_078.txt.gz
Temp
2 2 2 2 2 2 1 1 0 1 0 0 1 0 -1 -2 -2 -2 -2 -3 -3 -3 -3 -3 -4 -5 -5 -4 -3 -4 -4 -4 -4 -4 -3 -3 -3 -3
2 2 2 2 2 1 1 1 0 0 0 0 1 0 -1 -1 -2 -3 -3 -4 -4 -3 -4 -4 -4 -4 -4 -3 -3 -3 -4 -4 -3 -4 -4 -4 -4 -4
2 2 2 2 2 2 1 1 1 0 0 0 -0 -0 -0 -1 -2 -3 -3 -3 -3 -3 -3 -4 -4 -4 -4 -3 -3 -3 -4 -3 -4 -4 -4 -4 -4 -4
2 2 2 3 2 2 1 1 0 1 0 -0 -0 -1 -1 -1 -1 -2 -2 -3 -3 -3 -3 -4 -4 -4 -3 -3 -4 -4 -4 -4 -4 -4 -4 -4 -4 -4
2 2 2 2 1 1 0 0 0 0 -0 -0 -1 -1 -1 -1 -1 -2 -3 -4 -4 -5 -5 -4 -4 -3 -3 -3 -4 -4 -4 -4 -5 -4 -4 -5 -5 -5
2 1 2 1 1 0 0 0 -0 -0 -0 -0 -0 -0 -1 -1 -1 -1 -2 -2 -2 -2 -3 -3 -3 -3 -3 -3 -4 -3 -4 -4 -4 -5 -5 -6 -5 -5
1 1 1 1 1 1 0 0 0 0 0 -0 -0 -0 -0 -0 -0 -1 -1 -2 -2 -3 -3 -3 -3 -4 -4 -4 -4 -4 -5 -5 -6 -6 -7 -6 -6 -6
1 1 1 1 1 0 0 0 0 -0 -0 -0 -0 -0 -0 -0 -0 -1 -1 -1 -1 -2 -3 -3 -3 -4 -4 -4 -5 -5 -6 -7 -7 -7 -7 -7 -7 -7
0 0 0 0 0 -0 -0 -0 -1 -1 -1 -1 -1 -1 -1 -1 -1 -1 -1 -2 -2 -2 -3 -3 -3 -3 -4 -5 -6 -7 -8 -8 -8 -8 -8 -8 -8 -8
-0 -0 -0 -0 -1 -1 -1 -1 -1 -1 -1 -1 -1 -1 -1 -1 -1 -1 -2 -2 -2 -3 -3 -4 -4 -5 -6 -7 -8 -8 -8 -8 -8 -8 -8 -8 -8 -8
-0 -1 -1 -1 -1 -1 -1 -1 -2 -2 -2 -2 -2 -2 -2 -2 -2 -2 -3 -3 -4 -4 -5 -5 -6 -7 -7 -8 -8 -8 -8 -8 -8 -8 -8 -8 -8 -9
-1 -1 -1 -2 -2 -2 -2 -2 -2 -2 -2 -2 -2 -2 -2 -3 -3 -4 -4 -5 -5 -6 -6 -7 -8 -8 -8 -8 -8 -8 -9 -8 -8 -8 -9 -9 -9 -9
-1 -2 -2 -2 -2 -2 -2 -2 -3 -3 -3 -3 -3 -3 -3 -3 -4 -4 -5 -6 -6 -7 -8 -8 -9 -9 -9 -9 -10 -10 -10 -9 -9 -9 -9 -9 -9 -9
-2 -2 -3 -3 -3 -3 -3 -3 -3 -3 -3 -3 -3 -3 -3 -4 -5 -5 -6 -7 -8 -8 -9 -9 -9 -9 -9 -9 -9 -10 -10 -10 -10 -10 -10 -10 -10 -10
-3 -3 -3 -3 -3 -3 -4 -4 -4 -4 -4 -4 -4 -4 -4 -5 -6 -6 -7 -8 -9 -9 -10 -10 -10 -10 -9 -10 -9 -10 -10 -11 -11 -11 -10 -10 -10 -10
-3 -3 -4 -4 -4 -4 -4 -4 -4 -4 -4 -4 -4 -5 -5 -5 -6 -7 -8 -9 -9 -10 -10 -10 -10 -10 -10 -10 -10 -10 -11 -11 -11 -11 -11 -11 -11 -11
-4 -4 -4 -4 -4 -5 -5 -5 -5 -5 -5 -5 -5 -5 -6 -6 -7 -8 -9 -9 -10 -10 -11 -11 -11 -10 -10 -10 -10 -11 -11 -11 -11 -11 -11 -11 -11 -11
-4 -4 -5 -5 -5 -5 -5 -6 -6 -6 -6 -6 -6 -6 -6 -7 -8 -8 -9 -10 -10 -11 -11 -11 -11 -11 -11 -11 -11 -11 -11 -11 -12 -12 -11 -11 -11 -12
-5 -5 -5 -5 -6 -6 -6 -6 -7 -7 -7 -7 -7 -7 -7 -8 -8 -9 -10 -10 -11 -11 -11 -12 -12 -12 -11 -11 -11 -11 -12 -13 -12 -12 -12 -12 -11 -11
-5 -5 -6 -6 -6 -6 -6 -7 -7 -8 -8 -8 -8 -8 -8 -8 -9 -10 -10 -11 -11 -12 -12 -12 -13 -13 -12 -12 -12 -12 -13 -13 -13 -12 -12 -12 -12 -12
-5 -6 -6 -6 -7 -7 -7 -8 -8 -8 -8 -8 -9 -8 -9 -9 -10 -10 -11 -11 -11 -12 -12 -13 -13 -13 -13 -13 -13 -13 -13 -13 -14 -13 -13 -13 -12 -12
-6 -6 -7 -7 -7 -8 -8 -8 -8 -8 -8 -9 -9 -9 -9 -10 -10 -11 -11 -12 -12 -12 -13 -13 -14 -14 -14 -14 -14 -14 -14 -14 -14 -14 -14 -14 -13 -12
-7 -7 -7 -8 -8 -8 -8 -8 -8 -9 -9 -9 -10 -10 -10 -10 -11 -11 -12 -12 -13 -13 -13 -14 -14 -15 -15 -15 -15 -15 -15 -15 -15 -14 -15 -15 -15 -14

GFSNE_700_temp_081.txt.gz
Temp
2 2 2 2 2 2 2 1 1 1 1 1 1 -0 -0 -0 -0 -1 -1 -2 -2 -2 -2 -2 -3 -4 -3 -4 -5 -5 -5 -5 -5 -4 -4 -4 -4 -4
2 2 3 2 2 2 2 2 1 1 1 1 0 -0 -0 -0 -0 -1 -1 -1 -2 -2 -2 -3 -3 -3 -4 -3 -4 -5 -5 -5 -5 -4 -4 -4 -4 -4
2 2 2 2 2 2 2 2 1 1 1 1 0 0 0 -0 -0 -0 -1 -1 -1 -2 -2 -2 -3 -3 -4 -4 -4 -4 -4 -4 -4 -4 -4 -4 -4 -4
2 2 2 2 2 2 2 2 1 1 0 1 0 0 -0 -0 -0 -1 -0 -1 -1 -1 -2 -2 -2 -4 -4 -4 -3 -3 -4 -3 -4 -4 -4 -4 -4 -4
2 2 2 2 2 2 1 1 1 0 0 0 1 0 0 0 -0 -0 -0 -1 -1 -1 -1 -1 -1 -2 -2 -3 -3 -3 -4 -4 -4 -4 -4 -4 -4 -4
2 2 2 2 1 1 1 1 1 1 0 0 0 0 0 0 0 0 -0 -1 -1 -1 -1 -1 -2 -2 -2 -3 -3 -3 -4 -4 -4 -4 -5 -5 -5 -5
1 1 1 1 1 1 1 0 0 0 0 -0 -0 -0 -0 -0 -0 -0 -0 -0 -0 -0 -1 -1 -2 -3 -3 -3 -3 -3 -4 -4 -5 -5 -6 -6 -6 -7
1 1 1 1 1 0 0 -0 -0 -0 -0 -0 -1 -1 -1 -1 -1 -1 -1 -0 -0 -1 -1 -1 -2 -2 -2 -3 -3 -4 -4 -5 -5 -6 -7 -7 -7 -7
0 0 0 0 -0 -0 -0 -0 -0 -1 -1 -1 -1 -1 -1 -1 -1 -1 -1 -1 -1 -1 -2 -2 -2 -3 -3 -3 -4 -4 -5 -6 -7 -7 -7 -7 -7 -7
-0 -0 -0 -1 -1 -1 -1 -1 -1 -1 -2 -2 -2 -2 -2 -2 -1 -1 -2 -2 -2 -3 -3 -3 -3 -4 -4 -5 -6 -6 -7 -7 -7 -8 -8 -8 -8 -8
-0 -1 -1 -1 -1 -1 -1 -1 -2 -2 -2 -2 -2 -2 -2 -2 -2 -2 -2 -2 -3 -3 -4 -4 -5 -5 -6 -6 -7 -8 -8 -8 -8 -8 -8 -8 -8 -8
-1 -1 -1 -1 -2 -2 -2 -2 -2 -2 -2 -2 -2 -2 -2 -2 -2 -2 -3 -3 -4 -4 -5 -6 -6 -7 -7 -8 -8 -8 -8 -8 -8 -8 -8 -9 -9 -9
-1 -2 -2 -2 -2 -2 -2 -3 -3 -3 -3 -3 -3 -3 -3 -3 -3 -3 -3 -4 -5 -5 -6 -7 -7 -8 -8 -9 -9 -9 -9 -9 -9 -9 -8 -9 -9 -9
-2 -2 -2 -3 -3 -3 -3 -3 -3 -4 -4 -4 -4 -4 -4 -4 -4 -4 -4 -5 -6 -6 -6 -7 -8 -8 -9 -9 -9 -10 -10 -9 -9 -9 -9 -9 -9 -9
-3 -3 -3 -3 -3 -3 -4 -4 -4 -4 -4 -4 -4 -4 -4 -4 -4 -5 -5 -5 -6 -7 -7 -8 -8 -9 -9 -9 -9 -10 -10 -11 -10 -10 -10 -10 -10 -10
-3 -3 -4 -4 -4 -4 -4 -4 -5 -5 -5 -5 -5 -5 -5 -5 -5 -5 -6 -6 -7 -7 -8 -8 -9 -9 -10 -10 -10 -10 -10 -10 -11 -11 -11 -11 -11 -11
-4 -4 -4 -4 -4 -4 -5 -5 -5 -5 -5 -6 -6 -6 -6 -6 -6 -6 -7 -7 -8 -8 -9 -9 -9 -10 -10 -11 -10 -11 -11 -11 -11 -11 -11 -11 -11 -11
-4 -4 -4 -5 -5 -5 -5 -5 -5 -6 -6 -6 -6 -7 -7 -7 -7 -7 -7 -8 -8 -9 -10 -10 -10 -10 -11 -11 -11 -11 -11 -11 -12 -12 -11 -11 -11 -12
-5 -5 -5 -5 -5 -5 -6 -6 -6 -6 -7 -7 -7 -7 -7 -8 -8 -8 -8 -8 -9 -10 -10 -11 -11 -11 -11 -11 -12 -12 -12 -13 -12 -13 -12 -12 -11 -12
-5 -5 -5 -5 -6 -6 -6 -6 -7 -7 -7 -7 -7 -7 -8 -8 -8 -9 -9 -9 -10 -10 -11 -11 -12 -12 -12 -12 -12 -13 -13 -13 -13 -13 -13 -13 -13 -12
-5 -5 -6 -6 -6 -7 -7 -7 -7 -8 -8 -8 -8 -8 -8 -9 -9 -9 -10 -10 -10 -11 -11 -12 -13 -13 -13 -13 -13 -13 -14 -14 -14 -14 -14 -14 -14 -13
-6 -6 -6 -7 -7 -7 -7 -8 -8 -8 -8 -8 -8 -8 -9 -9 -10 -10 -10 -10 -11 -11 -12 -13 -13 -13 -13 -14 -14 -14 -14 -15 -15 -15 -15 -15 -14 -14
-7 -8 -7 -7 -8 -8 -9 -9 -9 -8 -8 -8 -9 -9 -9 -10 -10 -10 -11 -11 -12 -12 -13 -13 -13 -14 -14 -14 -14 -15 -15 -15 -15 -15 -15 -16 -16 -15

GFSNE_700_temp_084.txt.gz
Temp
3 2 2 2 2 1 1 2 2 2 2 2 1 1 1 0 0 -0 -0 -1 -1 -0 -1 -2 -2 -3 -4 -3 -4 -4 -4 -4 -5 -5 -5 -5 -5 -5
3 3 2 2 2 2 2 2 2 2 1 1 1 1 1 0 -0 -0 -0 -0 -0 -0 -1 -1 -2 -2 -3 -4 -4 -4 -3 -4 -4 -5 -5 -5 -5 -4
3 2 2 2 2 2 2 2 2 2 1 1 0 1 1 0 -0 0 -0 -0 -0 -1 -1 -1 -2 -2 -2 -3 -3 -3 -3 -3 -4 -4 -4 -4 -4 -4
2 2 2 2 2 2 2 1 1 1 1 1 0 1 1 1 0 1 1 0 0 -1 -1 -1 -1 -1 -1 -1 -2 -3 -3 -3 -3 -4 -4 -4 -4 -4
2 2 1 1 1 1 1 1 1 1 1 1 1 1 1 1 1 1 0 0 0 -0 -0 -1 -1 -1 -1 -2 -2 -2 -3 -3 -3 -3 -3 -3 -4 -4
1 1 1 1 1 1 1 1 1 1 1 1 0 0 0 0 0 0 -0 -0 -0 -0 -0 -1 -1 -1 -1 -2 -2 -2 -2 -2 -2 -2 -3 -3 -3 -4
1 1 1 1 1 1 1 1 0 0 0 -0 -0 -0 -0 -0 -0 -0 -1 -0 -0 -1 -1 -1 -1 -1 -1 -1 -1 -2 -2 -2 -2 -3 -3 -4 -5 -5
0 0 1 1 1 0 0 0 -0 -0 -0 -1 -1 -1 -1 -1 -1 -1 -1 -1 -1 -1 -1 -1 -1 -1 -1 -1 -1 -1 -1 -2 -3 -4 -4 -5 -5 -6
0 0 0 -0 -0 -0 -0 -0 -1 -1 -1 -1 -1 -1 -1 -1 -1 -1 -1 -1 -1 -1 -1 -1 -1 -2 -2 -2 -2 -2 -3 -3 -3 -4 -6 -7 -7 -7
-0 -0 -0 -0 -0 -1 -1 -1 -1 -1 -1 -1 -1 -2 -2 -2 -2 -2 -2 -2 -2 -2 -2 -2 -2 -2 -3 -3 -3 -4 -5 -5 -6 -6 -7 -7 -8 -8
-1 -1 -1 -1 -1 -1 -1 -1 -1 -1 -1 -2 -2 -2 -2 -2 -2 -2 -2 -2 -2 -2 -3 -3 -3 -4 -4 -5 -5 -6 -6 -7 -7 -7 -8 -8 -8 -8
-1 -1 -1 -1 -1 -2 -2 -2 -2 -2 -2 -2 -2 -3 -3 -3 -3 -3 -3 -3 -3 -3 -3 -4 -4 -4 -5 -6 -7 -7 -8 -8 -8 -8 -8 -8 -9 -9
-2 -2 -2 -2 -2 -2 -2 -2 -2 -3 -3 -3 -3 -3 -3 -3 -3 -3 -3 -3 -4 -4 -4 -4 -5 -5 -6 -7 -7 -8 -8 -8 -8 -9 -9 -9 -9 -9
-2 -2 -2 -2 -3 -3 -3 -3 -3 -3 -3 -4 -4 -4 -4 -4 -4 -4 -4 -4 -4 -4 -5 -5 -6 -7 -7 -8 -9 -9 -9 -9 -9 -9 -9 -9 -9 -9
-3 -3 -3 -3 -3 -3 -3 -4 -4 -4 -4 -4 -4 -4 -4 -4 -4 -5 -5 -5 -5 -5 -6 -6 -6 -7 -8 -9 -9 -9 -9 -10 -10 -10 -9 -9 -9 -9
-3 -3 -3 -4 -4 -4 -4 -4 -4 -4 -4 -5 -5 -5 -5 -5 -5 -5 -5 -6 -6 -6 -6 -7 -7 -8 -9 -9 -9 -10 -10 -10 -10 -10 -11 -11 -10 -10
-3 -4 -4 -4 -4 -4 -4 -5 -5 -5 -5 -5 -5 -5 -5 -5 -6 -6 -6 -6 -7 -7 -7 -7 -8 -8 -9 -10 -10 -10 -10 -10 -11 -11 -11 -11 -11 -11
-4 -4 -4 -4 -5 -5 -5 -5 -5 -5 -6 -6 -6 -6 -6 -6 -6 -6 -7 -7 -7 -8 -8 -8 -8 -9 -9 -10 -11 -11 -11 -11 -12 -12 -12 -11 -12 -12
-5 -5 -5 -5 -5 -5 -5 -5 -6 -6 -6 -7 -7 -7 -7 -7 -7 -7 -7 -8 -8 -9 -9 -9 -9 -10 -10 -10 -11 -11 -12 -12 -12 -12 -13 -12 -12 -13
-5 -5 -5 -5 -5 -6 -6 -6 -6 -7 -7 -7 -7 -7 -7 -7 -7 -8 -8 -8 -9 -9 -10 -10 -10 -10 -10 -11 -11 -12 -12 -13 -13 -13 -13 -13 -13 -13
-5 -5 -6 -6 -6 -6 -7 -7 -7 -7 -8 -8 -8 -8 -8 -8 -8 -8 -8 -9 -9 -10 -10 -11 -11 -11 -11 -11 -12 -13 -14 -14 -14 -14 -14 -14 -14 -14
-6 -6 -6 -6 -6 -7 -8 -8 -8 -9 -9 -9 -9 -9 -8 -8 -9 -9 -9 -10 -10 -10 -11 -11 -11 -12 -12 -12 -13 -13 -14 -14 -15 -15 -15 -15 -15 -14
-6 -7 -6 -7 -8 -9 -9 -9 -9 -10 -9 -9 -9 -9 -9 -9 -9 -9 -10 -10 -11 -11 -11 -12 -12 -12 -12 -13 -13 -13 -14 -14 -15 -15 -15 -16 -16 -15

GFSNE_700_temp_087.txt.gz
Temp
3 3 3 2 2 2 1 1 1 2 1 2 1 1 2 2 2 1 1 1 1 0 0 -0 -0 -0 -1 -2 -3 -4 -3 -4 -4 -4 -4 -5 -5 -5
3 3 3 2 2 2 1 2 1 1 2 2 1 1 1 1 1 1 1 0 0 0 0 -0 -0 -1 -1 -2 -4 -4 -4 -4 -5 -4 -4 -4 -4 -4
3 3 2 2 2 2 1 2 1 2 2 1 1 1 1 1 1 1 1 1 1 0 0 -0 -0 -1 -1 -1 -2 -2 -3 -3 -3 -3 -3 -3 -3 -3
3 2 2 2 2 2 1 1 1 1 1 1 0 0 1 1 1 1 1 1 1 1 0 0 -0 -0 -0 -1 -1 -2 -2 -2 -2 -2 -3 -3 -4 -4
2 2 2 1 1 1 1 1 1 1 1 1 1 1 1 1 1 1 1 0 0 0 0 -0 -0 -0 -0 -0 -1 -1 -1 -1 -1 -2 -2 -3 -3 -3
1 1 1 1 1 1 1 1 1 1 1 1 1 1 0 0 0 0 -0 -0 -0 -0 -0 -0 -0 -0 -0 -1 -1 -1 -1 -1 -1 -1 -2 -2 -3 -3
1 1 0 0 0 0 1 1 1 1 1 0 0 0 -0 -0 -0 -1 -0 -1 -1 -1 -1 -1 -1 -1 -1 -1 -1 -1 -1 -1 -1 -1 -2 -2 -2 -3
0 0 -0 0 0 0 0 0 0 0 0 -0 -0 -0 -1 -1 -1 -1 -1 -1 -1 -1 -1 -1 -1 -1 -1 -1 -1 -1 -1 -1 -1 -1 -2 -2 -3 -3
-0 -0 -0 -0 -0 -0 -0 0 -0 -0 -0 -1 -1 -1 -1 -1 -1 -1 -1 -1 -1 -1 -1 -1 -1 -1 -1 -1 -1 -1 -1 -2 -2 -2 -3 -3 -4 -5
-1 -0 -0 -0 -1 -0 -0 -0 -1 -1 -1 -1 -1 -1 -1 -1 -1 -2 -2 -2 -2 -2 -2 -2 -2 -2 -2 -2 -2 -2 -3 -3 -3 -4 -4 -5 -6 -7
-1 -1 -1 -1 -1 -1 -1 -1 -1 -1 -1 -1 -2 -2 -2 -2 -2 -2 -2 -2 -2 -2 -2 -2 -2 -3 -3 -3 -3 -4 -4 -4 -5 -5 -6 -6 -7 -7
-1 -1 -1 -1 -1 -1 -1 -2 -2 -2 -2 -2 -2 -2 -2 -2 -2 -2 -3 -3 -3 -3 -3 -3 -3 -3 -4 -4 -4 -5 -5 -5 -6 -7 -7 -7 -7 -8
-2 -2 -2 -2 -2 -2 -2 -2 -2 -2 -3 -3 -3 -3 -3 -3 -3 -3 -3 -3 -3 -3 -4 -4 -4 -4 -4 -5 -5 -5 -6 -6 -7 -7 -8 -8 -8 -8
-2 -2 -2 -2 -2 -2 -3 -3 -3 -3 -3 -3 -3 -3 -3 -3 -4 -4 -4 -4 -4 -4 -4 -4 -5 -5 -5 -6 -6 -6 -7 -7 -7 -8 -8 -8 -9 -9
-2 -2 -2 -3 -3 -3 -3 -3 -3 -4 -4 -4 -4 -4 -4 -4 -4 -4 -4 -4 -5 -5 -5 -5 -5 -6 -6 -6 -7 -7 -7 -8 -8 -8 -9 -9 -9 -9
-3 -3 -3 -3 -3 -3 -4 -4 -4 -4 -4 -4 -4 -4 -5 -5 -5 -5 -5 -5 -5 -5 -5 -5 -6 -6 -7 -7 -7 -8 -8 -8 -9 -9 -9 -10 -10 -10
-3 -3 -3 -3 -4 -4 -4 -4 -4 -4 -5 -5 -5 -5 -5 -5 -6 -6 -6 -6 -6 -6 -6 -7 -7 -7 -7 -8 -8 -9 -9 -9 -10 -10 -10 -10 -11 -11
-4 -4 -4 -4 -4 -4 -5 -5 -5 -5 -5 -5 -6 -6 -6 -6 -6 -6 -6 -6 -6 -7 -7 -7 -8 -8 -8 -9 -9 -9 -10 -10 -10 -10 -10 -11 -11 -12
-4 -4 -4 -5 -5 -5 -5 -5 -5 -5 -6 -6 -6 -7 -7 -7 -7 -7 -7 -7 -7 -7 -8 -8 -8 -8 -9 -9 -10 -10 -11 -11 -11 -11 -12 -12 -12 -12
-5 -5 -5 -5 -5 -5 -5 -6 -6 -6 -7 -7 -7 -7 -7 -8 -8 -8 -7 -8 -8 -8 -8 -9 -9 -9 -9 -10 -10 -11 -11 -11 -12 -12 -13 -13 -13 -13
-5 -5 -5 -5 -5 -6 -6 -6 -6 -7 -8 -8 -8 -9 -9 -9 -8 -8 -8 -8 -8 -9 -9 -10 -10 -10 -10 -10 -10 -12 -12 -13 -13 -13 -13 -13 -13 -13
-5 -6 -6 -6 -6 -6 -6 -7 -7 -8 -8 -9 -9 -10 -9 -9 -9 -9 -9 -9 -9 -9 -10 -10 -10 -10 -11 -11 -11 -12 -12 -13 -13 -14 -14 -14 -14 -13
-7 -7 -7 -7 -6 -7 -8 -8 -8 -9 -9 -9 -10 -10 -9 -9 -9 -9 -9 -9 -9 -10 -10 -10 -11 -11 -11 -11 -12 -12 -13 -13 -14 -14 -14 -15 -14 -14

GFSNE_700_temp_090.txt.gz
Temp
4 3 3 3 3 3 2 2 2 1 1 2 2 1 2 2 2 2 1 1 1 1 1 1 1 0 0 0 -1 -2 -2 -3 -3 -3 -3 -4 -4 -4
3 3 3 3 3 3 2 2 1 1 1 1 1 1 2 2 1 1 1 1 1 1 1 1 1 0 -0 -0 -1 -1 -5 -5 -5 -5 -5 -3 -3 -3
3 3 3 3 3 2 2 2 1 1 1 1 1 1 1 1 1 1 1 1 1 1 1 1 1 1 0 -0 -0 -1 -2 -3 -3 -3 -3 -2 -3 -3
3 3 3 2 2 2 1 1 1 1 1 1 1 1 1 1 1 1 1 1 1 1 1 0 0 0 0 0 -0 -0 -1 -1 -2 -2 -2 -2 -2 -2
2 2 2 2 2 1 1 1 1 1 1 1 1 1 1 1 1 0 0 0 0 0 0 0 0 -0 -0 -0 -0 -0 -0 -1 -1 -1 -2 -2 -2 -2
2 2 2 1 1 0 1 1 0 1 1 1 1 0 0 0 0 0 -0 -0 -0 -0 -0 -0 -0 -0 -0 -0 -1 -1 -1 -1 -1 -1 -1 -1 -1 -2
1 1 1 1 0 0 0 0 0 0 0 0 0 0 -0 -0 -0 -0 -0 -1 -1 -1 -0 -1 -0 -0 -0 -0 -0 -0 -1 -1 -1 -1 -1 -1 -2 -2
1 1 0 -0 -0 -0 -0 0 -0 -0 -0 -0 -0 -0 -0 -0 -0 -1 -1 -1 -1 -1 -1 -1 -1 -1 -1 -1 -1 -1 -1 -1 -1 -1 -1 -2 -2 -2
-0 -0 -0 -1 -1 -0 -0 -0 -1 -1 -0 -0 -1 -1 -1 -1 -1 -1 -1 -1 -1 -1 -1 -1 -1 -1 -1 -1 -1 -1 -2 -2 -2 -2 -2 -2 -3 -3
-1 -1 -1 -1 -1 -1 -1 -1 -1 -1 -1 -1 -1 -1 -1 -1 -1 -1 -2 -2 -2 -2 -2 -2 -2 -2 -2 -2 -2 -2 -2 -2 -3 -3 -3 -3 -4 -5
-2 -2 -1 -1 -1 -1 -1 -1 -1 -1 -1 -1 -2 -2 -2 -2 -2 -2 -2 -2 -2 -2 -2 -2 -2 -2 -3 -3 -3 -3 -3 -3 -4 -4 -4 -5 -5 -6
-2 -2 -2 -2 -2 -1 -1 -2 -2 -2 -2 -2 -2 -2 -2 -2 -2 -3 -3 -3 -3 -3 -3 -3 -3 -3 -3 -3 -4 -4 -4 -4 -5 -5 -5 -6 -6 -7
-2 -2 -2 -2 -2 -2 -2 -2 -2 -2 -2 -2 -3 -3 -3 -3 -3 -3 -3 -3 -3 -3 -3 -3 -4 -4 -4 -4 -5 -5 -5 -5 -5 -6 -6 -7 -7 -7
-3 -2 -2 -2 -2 -2 -2 -2 -3 -3 -3 -3 -3 -3 -3 -3 -4 -4 -4 -4 -4 -4 -4 -4 -4 -4 -4 -5 -5 -6 -6 -6 -6 -6 -7 -7 -8 -8
-3 -3 -2 -2 -2 -3 -3 -3 -3 -3 -3 -3 -4 -4 -4 -4 -4 -4 -4 -5 -5 -4 -4 -5 -5 -5 -5 -5 -6 -6 -7 -7 -7 -7 -7 -8 -8 -9
-3 -3 -3 -3 -3 -3 -3 -4 -4 -4 -4 -4 -4 -4 -4 -4 -5 -5 -5 -5 -5 -5 -5 -5 -5 -5 -6 -6 -6 -7 -7 -8 -8 -8 -8 -9 -9 -10
-3 -3 -3 -3 -4 -4 -4 -4 -4 -4 -4 -4 -5 -5 -5 -5 -5 -6 -6 -6 -6 -6 -6 -6 -6 -6 -7 -7 -7 -8 -8 -8 -8 -8 -9 -9 -10 -10
-4 -4 -4 -4 -4 -4 -4 -5 -5 -5 -5 -5 -5 -5 -5 -6 -6 -6 -6 -6 -6 -6 -6 -7 -7 -7 -7 -8 -8 -8 -9 -9 -9 -9 -9 -10 -10 -11
-4 -4 -4 -4 -4 -4 -5 -5 -5 -5 -5 -5 -6 -6 -7 -7 -8 -8 -8 -7 -7 -7 -7 -7 -7 -8 -8 -9 -9 -9 -9 -10 -10 -10 -10 -11 -11 -12
-5 -5 -5 -5 -5 -5 -5 -5 -5 -6 -6 -6 -6 -7 -7 -8 -9 -9 -8 -9 -8 -8 -8 -8 -8 -8 -8 -9 -9 -10 -10 -10 -10 -11 -11 -11 -12 -12
-5 -5 -5 -5 -5 -5 -6 -6 -6 -6 -6 -6 -7 -8 -9 -9 -9 -9 -9 -9 -9 -9 -8 -8 -8 -9 -9 -9 -9 -11 -11 -11 -11 -11 -12 -12 -12 -12
-6 -6 -6 -6 -6 -6 -6 -6 -7 -7 -7 -8 -9 -9 -9 -9 -9 -9 -9 -9 -9 -9 -8 -9 -9 -9 -9 -10 -10 -10 -11 -12 -12 -12 -12 -13 -13 -12
-6 -6 -6 -7 -7 -7 -7 -7 -7 -8 -8 -8 -8 -9 -8 -8 -9 -9 -9 -9 -9 -9 -9 -9 -10 -10 -10 -10 -10 -11 -11 -12 -12 -13 -13 -14 -13 -13

GFSNE_700_temp_093.txt.gz
Temp
4 4 3 3 3 3 2 3 2 2 1 0 1 1 1 1 2 2 1 1 1 1 1 1 1 1 0 0 -0 -1 -1 -1 -1 -2 -2 -3 -4 -4
4 3 3 3 3 3 3 2 2 2 1 0 1 1 1 1 1 1 1 1 1 1 1 1 1 1 0 0 0 -0 -1 -1 -2 -2 -3 -5 -5 -4
3 3 3 3 3 2 2 2 2 1 1 1 1 1 1 1 1 1 1 1 1 1 1 1 1 1 1 1 0 0 0 -1 -1 -2 -1 -2 -3 -2
3 3 3 3 2 2 1 1 1 1 1 1 1 1 1 1 1 1 1 0 0 0 0 0 0 0 0 -0 -0 -0 -0 -0 -1 -1 -2 -2 -1 -2
2 2 2 2 2 2 1 1 1 1 1 1 1 1 1 1 1 0 0 -0 -0 -0 -0 -0 -0 -0 -0 -1 -1 -1 -0 -0 -1 -1 -1 -1 -1 -1
2 2 2 2 2 1 1 1 0 0 0 0 1 1 1 0 0 -0 -0 -0 -0 -0 -1 -1 -1 -1 -1 -1 -1 -1 -1 -1 -1 -1 -1 -1 -1 -1
1 1 1 1 1 0 0 0 -0 -0 0 0 0 0 0 -0 -0 -1 -1 -1 -1 -1 -1 -1 -1 -1 -1 -1 -1 -1 -1 -1 -1 -1 -1 -1 -1 -1
1 1 1 0 0 0 -0 -0 -0 -0 -0 -0 -0 -0 -0 -1 -1 -1 -1 -1 -1 -1 -1 -1 -1 -1 -1 -1 -1 -1 -1 -1 -1 -1 -1 -2 -2 -2
0 -0 -0 -0 -1 -1 -1 -1 -0 -1 -1 -1 -1 -1 -1 -1 -1 -1 -1 -1 -1 -1 -1 -1 -1 -1 -1 -1 -1 -1 -2 -2 -2 -2 -2 -2 -2 -3
-1 -1 -1 -1 -1 -1 -1 -1 -1 -1 -1 -1 -1 -1 -1 -1 -1 -2 -2 -2 -2 -2 -2 -2 -2 -2 -2 -2 -2 -2 -2 -2 -3 -3 -3 -3 -3 -3
-1 -2 -2 -2 -2 -2 -2 -1 -1 -1 -1 -2 -2 -2 -2 -2 -2 -2 -2 -2 -3 -2 -2 -2 -2 -2 -3 -3 -3 -3 -3 -3 -4 -4 -4 -4 -4 -4
-2 -3 -3 -2 -2 -2 -2 -2 -2 -2 -2 -2 -2 -2 -2 -2 -2 -3 -3 -3 -3 -3 -3 -3 -3 -3 -3 -3 -3 -3 -4 -4 -4 -5 -5 -5 -5 -5
-3 -3 -3 -3 -3 -2 -2 -2 -2 -2 -2 -2 -2 -3 -3 -3 -3 -3 -3 -3 -3 -4 -4 -4 -4 -4 -4 -4 -4 -4 -4 -5 -5 -5 -5 -6 -6 -6
-4 -3 -3 -3 -3 -3 -3 -3 -3 -3 -3 -3 -3 -3 -3 -3 -4 -4 -4 -4 -4 -4 -4 -4 -4 -4 -4 -5 -5 -5 -5 -5 -6 -6 -6 -6 -7 -7
-5 -4 -3 -3 -3 -3 -3 -3 -3 -3 -3 -4 -4 -4 -4 -4 -4 -4 -4 -4 -5 -5 -5 -5 -5 -5 -5 -5 -6 -6 -6 -6 -6 -7 -7 -7 -7 -8
-6 -5 -4 -4 -4 -4 -4 -4 -4 -4 -4 -4 -4 -4 -4 -4 -5 -5 -5 -5 -5 -5 -5 -5 -5 -6 -6 -6 -6 -6 -6 -7 -7 -7 -8 -8 -8 -8
-4 -4 -4 -4 -4 -4 -4 -4 -4 -4 -4 -4 -4 -5 -5 -5 -5 -5 -5 -5 -6 -6 -6 -6 -6 -6 -6 -6 -7 -7 -7 -8 -8 -8 -8 -9 -9 -9
-4 -4 -4 -4 -4 -4 -4 -4 -4 -5 -5 -5 -5 -5 -5 -5 -6 -6 -6 -6 -7 -7 -7 -7 -7 -7 -7 -7 -7 -8 -8 -8 -8 -9 -9 -9 -10 -10
-4 -5 -5 -5 -5 -5 -5 -5 -5 -5 -5 -5 -5 -5 -6 -6 -6 -6 -7 -8 -8 -8 -8 -8 -8 -8 -7 -8 -8 -8 -9 -9 -9 -9 -9 -10 -10 -11
-5 -5 -5 -5 -5 -5 -5 -5 -5 -5 -6 -6 -6 -6 -6 -6 -7 -7 -8 -8 -9 -9 -9 -8 -8 -8 -8 -8 -8 -9 -9 -9 -9 -10 -10 -10 -10 -11
-5 -5 -6 -6 -6 -6 -6 -6 -6 -6 -6 -6 -6 -7 -8 -8 -8 -9 -9 -9 -9 -9 -9 -9 -9 -8 -8 -8 -9 -9 -10 -10 -10 -10 -10 -11 -11 -11
-6 -6 -7 -7 -7 -7 -7 -6 -6 -7 -7 -8 -8 -8 -9 -8 -8 -9 -9 -9 -9 -9 -9 -10 -9 -9 -9 -9 -9 -9 -10 -10 -10 -10 -11 -11 -11 -11
-6 -6 -6 -6 -6 -6 -7 -7 -8 -8 -7 -7 -7 -7 -8 -8 -8 -8 -8 -9 -9 -9 -10 -9 -9 -9 -9 -9 -9 -10 -10 -11 -11 -11 -12 -12 -11 -12

GFSNE_700_temp_099.txt.gz
Temp
2 3 3 3 3 2 2 2 1 1 2 1 1 1 1 -0 -0 1 0 1 0 1 1 1 1 1 1 0 0 0 -0 -1 -2 -2 -3 -3 -3 -3
2 2 2 2 2 2 2 1 1 1 1 1 1 1 -1 0 0 1 0 0 0 0 1 1 1 1 1 0 0 -0 -1 -1 -2 -2 -2 -3 -3 -4
1 1 2 2 2 1 1 1 1 1 1 1 1 1 0 0 0 0 -0 -0 -0 0 1 0 1 1 1 0 0 0 -0 -1 -2 -2 -3 -2 -3 -2
0 1 1 1 1 1 1 1 1 1 0 0 0 -0 0 -0 -0 -0 -0 -0 -0 0 0 0 0 0 0 -0 -0 -0 -0 -0 -0 -1 -1 -1 -1 -1
0 1 1 1 1 1 1 0 0 -0 -0 -0 -0 -0 -0 -0 -1 -1 -1 -1 -0 -0 -0 -0 -0 -0 -0 -0 -0 -1 -1 -1 -1 -1 -1 -1 -1 -1
1 1 1 1 1 1 0 0 0 -0 -0 -1 -1 -1 -1 -1 -1 -1 -1 -1 -1 -1 -0 -1 -1 -1 -1 -1 -1 -1 -1 -1 -1 -1 -1 -1 -1 -1
0 0 0 1 0 0 0 -0 -0 -1 -1 -1 -1 -1 -1 -1 -1 -1 -1 -1 -1 -1 -1 -1 -1 -1 -1 -1 -1 -1 -1 -1 -1 -1 -1 -1 -1 -1
0 -0 0 0 0 -0 -1 -1 -1 -1 -1 -2 -2 -2 -2 -1 -1 -1 -1 -1 -1 -1 -1 -1 -1 -1 -1 -1 -1 -1 -1 -1 -1 -1 -1 -1 -1 -1
-0 -0 -0 -0 -0 -1 -1 -1 -2 -2 -2 -2 -2 -2 -2 -2 -1 -1 -2 -2 -2 -1 -2 -2 -2 -2 -2 -2 -2 -2 -2 -2 -2 -2 -2 -2 -2 -2
-0 -0 -1 -1 -1 -2 -2 -2 -2 -2 -2 -3 -2 -2 -2 -2 -2 -2 -2 -2 -2 -2 -2 -2 -2 -2 -2 -2 -2 -2 -2 -2 -2 -2 -2 -3 -3 -3
-1 -1 -1 -2 -2 -3 -3 -3 -3 -3 -3 -3 -2 -2 -2 -2 -2 -2 -2 -2 -2 -2 -3 -3 -3 -3 -3 -3 -3 -3 -3 -3 -3 -3 -3 -3 -3 -4
-2 -2 -3 -3 -3 -3 -3 -4 -4 -4 -3 -3 -3 -3 -3 -3 -3 -3 -3 -3 -3 -3 -3 -3 -3 -3 -3 -3 -3 -3 -3 -3 -3 -3 -3 -4 -4 -4
-3 -3 -4 -4 -4 -4 -4 -4 -4 -4 -3 -3 -2 -3 -3 -3 -3 -3 -3 -3 -3 -4 -3 -3 -4 -4 -4 -4 -4 -4 -4 -4 -4 -4 -4 -4 -4 -5
-4 -4 -4 -4 -5 -5 -4 -4 -4 -4 -4 -3 -3 -3 -3 -3 -3 -4 -4 -4 -4 -4 -4 -4 -4 -4 -4 -4 -4 -4 -4 -5 -5 -5 -5 -5 -5 -6
-4 -5 -5 -5 -5 -6 -5 -5 -4 -4 -4 -4 -4 -3 -4 -4 -4 -4 -4 -4 -4 -4 -4 -4 -4 -5 -5 -5 -5 -5 -5 -5 -5 -5 -5 -6 -6 -6
-5 -5 -5 -5 -7 -7 -6 -5 -5 -5 -5 -4 -4 -4 -4 -4 -4 -4 -5 -5 -5 -5 -5 -5 -5 -5 -6 -6 -6 -6 -5 -5 -6 -6 -6 -6 -6 -7
-5 -5 -5 -5 -7 -7 -6 -6 -5 -5 -5 -5 -4 -5 -5 -5 -5 -5 -5 -5 -5 -5 -5 -6 -6 -6 -6 -6 -7 -7 -6 -6 -6 -6 -6 -7 -7 -7
-5 -6 -7 -7 -7 -6 -6 -6 -5 -5 -5 -5 -5 -5 -5 -5 -5 -5 -6 -6 -6 -6 -6 -6 -7 -7 -7 -7 -7 -7 -7 -7 -7 -7 -7 -7 -8 -8
-5 -6 -6 -6 -6 -6 -6 -5 -5 -5 -5 -5 -5 -5 -6 -6 -6 -6 -6 -6 -6 -7 -7 -7 -7 -7 -7 -8 -7 -8 -8 -8 -8 -7 -8 -8 -8 -8
-5 -6 -6 -6 -6 -6 -6 -6 -6 -5 -5 -5 -5 -6 -6 -6 -6 -6 -6 -6 -7 -7 -7 -7 -8 -9 -8 -8 -8 -9 -9 -8 -8 -8 -8 -8 -8 -8
-6 -6 -6 -6 -6 -6 -6 -6 -6 -6 -6 -6 -6 -6 -6 -6 -7 -7 -7 -7 -7 -7 -8 -9 -10 -8 -8 -9 -8 -9 -10 -9 -9 -9 -8 -8 -9 -9
-6 -6 -7 -8 -7 -7 -8 -8 -8 -8 -7 -7 -7 -7 -7 -7 -7 -8 -9 -9 -8 -8 -9 -9 -10 -9 -8 -9 -9 -9 -10 -10 -10 -9 -9 -9 -9 -9
-6 -6 -6 -6 -7 -7 -7 -7 -7 -7 -7 -7 -7 -7 -8 -7 -8 -8 -8 -9 -9 -9 -8 -9 -9 -8 -9 -9 -9 -9 -9 -10 -10 -10 -10 -9 -9 -9

GFSNE_700_temp_102.txt.gz
Temp
1 1 1 2 2 2 2 2 2 2 2 2 1 1 0 -0 -1 -0 0 -0 -0 -0 0 1 1 1 1 1 0 0 0 -0 -1 -1 -2 -2 -2 -2
-0 0 1 1 1 1 1 1 1 1 1 1 1 -0 0 1 -1 -1 -0 -0 -0 -0 -0 0 0 1 1 1 0 -0 -0 -1 -1 -2 -2 -3 -2 -3
0 0 0 1 1 0 0 1 1 1 1 1 0 0 -0 -0 -0 -0 -1 -1 -1 -0 -0 0 0 0 0 0 0 -1 -1 -2 -2 -1 -2 -2 -3 -3
-0 -0 -0 0 0 0 1 1 1 0 1 0 0 -0 -0 -1 -1 -1 -1 -1 -1 -1 -1 -0 -0 -0 -0 -0 -0 -1 -1 -0 -1 -1 -2 -3 -2 -3
-0 -0 -0 0 0 0 0 0 1 0 0 0 -0 -1 -1 -1 -1 -1 -1 -1 -1 -1 -1 -1 -0 -0 -1 -1 -1 -1 -1 -1 -1 -1 -1 -1 -1 -1
0 0 -0 -0 0 0 0 -0 -0 0 0 -0 -0 -1 -1 -2 -2 -1 -1 -2 -2 -1 -1 -1 -1 -1 -1 -1 -1 -1 -1 -1 -1 -1 -1 -1 -1 -1
-0 -0 -0 -0 -0 0 0 0 0 0 -0 -0 -1 -1 -1 -2 -2 -2 -2 -1 -1 -1 -1 -1 -1 -1 -1 -1 -1 -1 -1 -1 -1 -1 -1 -1 -1 -1
-0 -0 -0 -0 -0 -0 -0 -0 0 -0 -1 -1 -2 -2 -2 -2 -2 -2 -2 -2 -2 -2 -2 -2 -2 -1 -1 -1 -1 -1 -1 -1 -1 -1 -1 -1 -1 -1
-0 -0 -0 -0 -0 -0 -1 -1 -1 -1 -1 -2 -2 -2 -3 -3 -2 -2 -2 -2 -2 -2 -2 -2 -2 -2 -2 -2 -2 -2 -2 -2 -2 -1 -2 -2 -2 -2
-0 -0 -0 -0 -1 -1 -1 -1 -1 -2 -2 -2 -3 -3 -3 -3 -3 -2 -2 -2 -2 -2 -2 -2 -2 -2 -2 -2 -2 -2 -2 -2 -2 -2 -2 -2 -2 -2
-1 -1 -1 -1 -1 -2 -2 -2 -2 -3 -3 -3 -3 -4 -3 -3 -3 -3 -3 -3 -3 -3 -3 -3 -3 -3 -3 -3 -3 -3 -3 -3 -3 -3 -3 -3 -3 -3
-1 -1 -1 -2 -2 -2 -2 -3 -3 -3 -3 -4 -4 -3 -3 -3 -3 -3 -3 -3 -3 -3 -3 -3 -3 -3 -3 -3 -3 -3 -3 -3 -3 -3 -3 -3 -3 -3
-1 -1 -2 -3 -3 -3 -4 -4 -4 -4 -4 -4 -3 -3 -3 -3 -4 -3 -3 -3 -3 -3 -3 -3 -4 -4 -4 -4 -4 -4 -4 -4 -4 -4 -4 -4 -4 -4
-2 -2 -3 -4 -4 -4 -4 -4 -4 -5 -5 -4 -4 -5 -4 -4 -4 -4 -4 -4 -4 -4 -3 -4 -4 -4 -4 -4 -4 -4 -4 -4 -4 -4 -4 -4 -5 -5
-2 -3 -4 -4 -5 -5 -5 -5 -6 -6 -5 -5 -5 -5 -4 -5 -4 -4 -4 -4 -4 -4 -4 -5 -5 -5 -5 -5 -5 -5 -5 -5 -5 -5 -5 -5 -5 -5
-2 -3 -4 -5 -5 -6 -6 -6 -5 -5 -5 -5 -5 -5 -4 -4 -5 -5 -5 -4 -5 -5 -5 -5 -5 -5 -5 -5 -5 -5 -5 -5 -6 -5 -6 -6 -6 -6
-3 -4 -5 -6 -6 -6 -7 -7 -7 -6 -6 -5 -5 -5 -5 -5 -5 -5 -5 -5 -5 -5 -5 -5 -6 -5 -6 -6 -6 -6 -6 -7 -6 -6 -6 -6 -6 -6
-4 -5 -5 -6 -6 -7 -7 -8 -7 -7 -6 -6 -5 -5 -5 -5 -5 -5 -5 -6 -6 -6 -6 -6 -6 -6 -6 -7 -7 -7 -7 -7 -7 -7 -7 -7 -7 -7
-5 -6 -6 -6 -7 -7 -7 -7 -7 -6 -6 -6 -5 -5 -6 -6 -6 -6 -6 -6 -6 -6 -6 -6 -6 -6 -7 -7 -7 -7 -8 -8 -8 -7 -7 -7 -7 -8
-6 -6 -6 -6 -6 -6 -7 -6 -6 -6 -6 -6 -6 -6 -6 -6 -6 -6 -6 -6 -7 -7 -7 -6 -7 -7 -7 -7 -7 -9 -9 -9 -8 -8 -8 -8 -8 -8
-6 -6 -6 -7 -6 -6 -6 -6 -6 -6 -6 -6 -6 -6 -6 -6 -6 -7 -7 -7 -7 -7 -7 -7 -8 -8 -8 -8 -8 -9 -10 -9 -9 -8 -8 -8 -8 -8
-6 -6 -6 -7 -7 -7 -7 -7 -7 -8 -8 -8 -8 -8 -8 -7 -7 -7 -8 -8 -8 -8 -8 -9 -10 -10 -9 -9 -9 -9 -9 -10 -9 -9 -9 -9 -9 -9
-7 -7 -7 -7 -7 -7 -7 -7 -7 -7 -7 -7 -8 -8 -8 -8 -8 -8 -8 -9 -9 -8 -8 -9 -9 -9 -8 -8 -9 -9 -9 -9 -10 -10 -9 -9 -9 -9

GFSNE_700_temp_105.txt.gz
Temp
2 1 2 1 1 0 1 1 1 1 1 2 2 2 1 1 1 1 0 1 -0 -1 -1 0 0 1 1 1 1 1 1 1 0 -0 -1 -1 -1 -2
1 1 1 0 0 0 0 0 0 1 0 1 1 1 1 1 0 0 0 0 0 -1 -0 -0 0 0 0 0 0 0 -0 -0 -0 -1 -1 -2 -2 -2
0 -0 -0 -0 -0 -0 -0 0 0 0 0 1 1 1 1 0 -0 0 0 -0 0 -0 -1 -1 -0 -0 -0 0 0 0 -0 -1 -1 -2 -2 -2 -2 -3
-1 -1 -1 -1 -1 -0 0 0 0 0 0 1 0 0 0 -0 -0 -0 -0 -0 -1 -1 -1 -1 -1 -1 -0 -0 -0 -0 -1 -2 -2 -2 -2 -2 -2 -2
-1 -1 -1 -0 0 0 1 0 0 0 0 0 0 0 -0 -1 -1 -1 -1 -1 -1 -1 -1 -1 -1 -1 -1 -1 -1 -1 -1 -2 -2 -2 -2 -3 -2 -2
-1 -1 -0 0 0 0 0 0 -0 -0 0 0 0 -0 -0 -1 -1 -1 -1 -1 -2 -2 -2 -1 -1 -1 -1 -1 -1 -1 -2 -1 -1 -2 -2 -2 -2 -2
-1 -0 0 0 0 0 -0 -0 -0 0 0 0 -0 -0 -1 -1 -2 -2 -2 -2 -2 -2 -2 -2 -2 -1 -2 -2 -2 -2 -2 -2 -2 -2 -2 -2 -2 -2
-0 -0 0 0 0 0 0 0 -0 -0 -0 -0 -0 -1 -1 -2 -2 -2 -2 -3 -3 -2 -2 -2 -2 -2 -2 -2 -2 -2 -2 -2 -2 -2 -2 -2 -2 -1
-0 0 0 0 0 0 -0 -0 -0 -0 -1 -1 -1 -2 -2 -2 -2 -3 -3 -3 -2 -2 -2 -2 -2 -2 -2 -2 -2 -2 -2 -2 -2 -2 -2 -2 -2 -2
-0 -0 0 -0 -0 -0 -0 -1 -1 -1 -1 -1 -2 -2 -3 -3 -3 -3 -3 -3 -3 -3 -3 -3 -3 -3 -3 -3 -2 -2 -2 -2 -2 -2 -2 -2 -2 -2
-1 -1 -1 -1 -1 -1 -1 -1 -1 -2 -2 -2 -3 -3 -3 -4 -4 -3 -3 -3 -3 -3 -3 -3 -3 -3 -3 -3 -3 -3 -3 -3 -3 -3 -3 -3 -3 -3
-1 -1 -1 -1 -1 -2 -2 -2 -2 -2 -3 -3 -4 -4 -4 -4 -4 -3 -3 -3 -3 -3 -3 -3 -4 -3 -3 -3 -3 -3 -3 -3 -3 -3 -3 -3 -3 -3
-2 -1 -1 -1 -2 -2 -3 -3 -3 -3 -4 -4 -4 -4 -4 -4 -4 -4 -4 -4 -4 -4 -4 -5 -4 -4 -4 -4 -4 -4 -4 -4 -4 -4 -4 -4 -4 -4
-2 -2 -2 -2 -2 -3 -4 -4 -4 -4 -4 -4 -4 -4 -4 -4 -4 -4 -4 -4 -4 -4 -4 -4 -5 -6 -5 -5 -4 -4 -4 -4 -4 -4 -4 -4 -4 -4
-2 -2 -2 -2 -3 -4 -4 -5 -5 -5 -5 -5 -5 -5 -5 -5 -5 -5 -5 -4 -4 -4 -5 -6 -5 -6 -6 -7 -5 -5 -5 -5 -5 -5 -5 -5 -5 -5
-2 -2 -3 -3 -3 -5 -5 -5 -6 -6 -6 -6 -5 -5 -5 -5 -5 -6 -5 -5 -5 -5 -5 -5 -5 -5 -5 -5 -5 -5 -5 -5 -5 -5 -5 -6 -6 -6
-3 -3 -3 -4 -5 -6 -6 -6 -6 -7 -7 -6 -6 -5 -5 -5 -5 -5 -5 -5 -5 -5 -5 -5 -5 -5 -5 -6 -6 -6 -6 -6 -6 -6 -6 -6 -6 -6
-4 -4 -4 -5 -5 -6 -6 -6 -7 -7 -7 -7 -6 -6 -6 -6 -5 -5 -6 -6 -6 -5 -6 -6 -6 -6 -6 -6 -6 -6 -6 -7 -7 -7 -7 -7 -7 -7
-5 -5 -5 -5 -5 -6 -6 -7 -7 -7 -7 -7 -6 -6 -6 -6 -6 -5 -5 -5 -5 -6 -6 -6 -6 -6 -6 -7 -7 -7 -7 -7 -7 -8 -8 -7 -8 -7
-6 -6 -6 -6 -6 -6 -6 -6 -7 -7 -7 -8 -7 -7 -7 -6 -6 -6 -6 -6 -6 -7 -7 -6 -6 -7 -7 -7 -7 -7 -8 -9 -8 -8 -8 -8 -8 -8
-6 -6 -6 -6 -6 -6 -7 -6 -6 -7 -7 -7 -7 -7 -7 -7 -7 -6 -6 -7 -7 -7 -7 -7 -8 -7 -7 -7 -7 -8 -10 -10 -10 -9 -9 -8 -8 -8
-7 -7 -7 -7 -7 -7 -7 -7 -7 -7 -8 -8 -8 -7 -7 -7 -8 -8 -7 -7 -7 -7 -7 -8 -8 -9 -9 -9 -9 -10 -11 -11 -10 -10 -9 -9 -8 -8
-8 -8 -8 -8 -8 -7 -7 -7 -7 -7 -7 -7 -7 -7 -7 -8 -8 -8 -8 -8 -8 -9 -9 -9 -10 -10 -9 -9 -9 -9 -9 -10 -10 -10 -9 -9 -9 -9

GFSNE_700_temp_108.txt.gz
Temp
2 1 2 2 1 1 1 1 1 0 0 1 1 1 0 0 1 1 1 1 1 0 0 -0 0 1 1 1 1 1 1 1 1 1 -0 -1 -1 -1
1 1 1 1 1 0 0 -0 -0 -0 0 1 1 1 1 1 1 1 1 0 -0 -0 -0 -0 -0 -0 -0 0 1 0 0 0 0 -0 -1 -1 -1 -2
1 0 0 -0 -0 -1 -1 -1 -1 -0 0 1 1 1 1 0 0 0 0 -0 -0 -0 -1 -1 -1 -0 -1 -0 -0 -0 -0 -1 -1 -1 -1 -1 -1 -2
0 -1 -1 -1 -1 -1 -1 -1 -0 0 0 0 1 1 1 0 0 -0 -1 -1 -0 -1 -1 -1 -1 -1 -1 -1 -1 -0 -1 -1 -1 -1 -1 -2 -2 -2
-1 -1 -1 -1 -1 -1 -1 -0 0 0 0 0 1 0 0 0 -0 -1 -1 -1 -1 -1 -2 -2 -2 -2 -1 -1 -1 -2 -2 -2 -2 -2 -2 -2 -2 -3
-0 -0 -0 -0 -0 -0 -0 0 0 0 -0 0 0 0 0 -0 -1 -1 -1 -1 -1 -2 -2 -2 -2 -2 -2 -2 -2 -2 -2 -2 -3 -3 -2 -3 -2 -2
-1 -0 -0 -0 -0 -0 0 0 0 0 0 0 0 0 -0 -0 -1 -1 -1 -2 -2 -2 -2 -3 -3 -2 -2 -2 -2 -2 -2 -2 -2 -2 -2 -3 -3 -3
-1 -1 -1 -0 -0 0 0 0 0 0 0 0 0 0 -0 -1 -1 -2 -2 -2 -2 -3 -3 -3 -2 -2 -2 -2 -2 -2 -2 -2 -2 -2 -3 -2 -2 -2
-1 -1 -1 -0 -0 0 0 0 0 0 0 -0 -0 -0 -1 -2 -2 -3 -3 -3 -3 -3 -3 -3 -3 -2 -2 -2 -2 -2 -2 -2 -2 -2 -3 -2 -2 -2
-1 -1 -1 -1 -0 -0 -0 0 -0 -0 -0 -1 -1 -1 -2 -2 -3 -3 -3 -3 -4 -3 -3 -3 -3 -3 -2 -2 -3 -3 -3 -3 -2 -2 -2 -2 -2 -2
-1 -1 -1 -1 -1 -1 -0 -1 -1 -1 -1 -1 -2 -2 -2 -3 -3 -4 -4 -4 -3 -3 -3 -3 -3 -3 -3 -3 -3 -3 -3 -3 -3 -3 -3 -3 -3 -3
-1 -1 -1 -1 -1 -1 -1 -1 -1 -2 -2 -2 -2 -3 -3 -3 -4 -4 -4 -4 -4 -3 -3 -3 -3 -3 -4 -4 -3 -3 -3 -3 -3 -3 -3 -3 -3 -3
-2 -2 -2 -2 -2 -1 -2 -2 -2 -2 -3 -3 -3 -3 -4 -4 -4 -4 -4 -4 -4 -4 -4 -4 -4 -4 -5 -5 -5 -4 -4 -4 -4 -4 -4 -4 -4 -4
-2 -2 -2 -2 -2 -2 -2 -3 -3 -3 -3 -4 -4 -4 -4 -4 -4 -4 -4 -4 -4 -4 -4 -4 -5 -5 -5 -6 -6 -5 -5 -4 -4 -4 -4 -4 -4 -4
-2 -2 -2 -2 -2 -2 -3 -3 -4 -4 -4 -4 -4 -5 -5 -5 -5 -5 -5 -5 -4 -5 -4 -4 -5 -5 -5 -6 -6 -6 -6 -6 -5 -5 -5 -4 -4 -5
-3 -3 -3 -3 -2 -2 -3 -4 -5 -5 -5 -5 -5 -5 -5 -5 -5 -5 -5 -5 -5 -5 -5 -5 -5 -5 -5 -6 -6 -6 -7 -6 -6 -5 -5 -5 -5 -5
-3 -3 -3 -3 -3 -3 -4 -5 -5 -5 -6 -6 -6 -6 -6 -6 -5 -5 -6 -6 -7 -6 -5 -5 -5 -5 -6 -6 -6 -6 -6 -6 -6 -6 -6 -6 -6 -6
-4 -4 -4 -4 -4 -4 -4 -5 -5 -6 -6 -7 -7 -7 -6 -6 -6 -6 -6 -6 -6 -6 -6 -6 -6 -6 -6 -6 -6 -6 -6 -6 -6 -6 -6 -6 -6 -6
-5 -5 -5 -5 -4 -5 -5 -5 -6 -6 -7 -7 -7 -7 -7 -6 -7 -7 -7 -7 -6 -6 -6 -6 -6 -6 -6 -6 -7 -6 -6 -6 -7 -7 -7 -7 -7 -7
-6 -6 -6 -5 -5 -5 -5 -6 -6 -6 -7 -7 -7 -7 -7 -7 -7 -7 -6 -6 -6 -6 -6 -6 -6 -6 -7 -7 -7 -6 -6 -7 -7 -7 -7 -7 -8 -8
-6 -6 -6 -6 -6 -6 -6 -6 -6 -7 -7 -7 -7 -7 -7 -7 -7 -7 -7 -7 -6 -6 -6 -7 -7 -7 -7 -6 -7 -7 -8 -8 -8 -8 -8 -9 -9 -9
-7 -7 -7 -7 -7 -7 -7 -7 -7 -7 -7 -7 -7 -7 -7 -7 -7 -7 -7 -7 -7 -7 -7 -7 -7 -7 -7 -8 -7 -8 -9 -9 -10 -10 -10 -9 -9 -9
-7 -7 -8 -8 -8 -8 -8 -8 -8 -7 -7 -7 -7 -7 -8 -8 -8 -8 -8 -8 -8 -8 -9 -9 -9 -9 -9 -9 -9 -9 -10 -10 -11 -10 -9 -10 -9 -9

GFSNE_700_temp_111.txt.gz
Temp
3 3 2 2 1 1 1 1 1 1 0 0 0 1 0 1 1 1 1 0 0 0 -0 0 -0 0 0 0 0 1 1 1 1 1 1 -0 -1 -1
2 1 1 1 1 1 1 0 0 -0 -0 -0 0 0 0 0 0 1 0 0 0 0 -0 0 -0 -1 -0 -0 0 0 0 0 0 0 0 -1 -1 -1
1 1 1 1 0 -0 -0 -1 -1 -1 -1 -0 0 0 0 0 0 0 0 0 0 -0 -0 -0 -0 -1 -1 -1 -1 -0 -0 -0 -0 -0 -1 -1 -1 -0
1 1 0 0 -1 -1 -1 -1 -1 -1 -0 -0 0 0 0 0 0 0 0 0 -0 -0 -0 -0 -1 -1 -1 -1 -2 -1 -1 -1 -1 -1 -1 -1 -1 -2
1 0 0 0 -0 -1 -0 -0 -1 -0 -1 -0 0 0 0 0 0 0 -0 -0 -0 -0 -0 -1 -1 -1 -1 -2 -2 -2 -3 -2 -2 -2 -2 -2 -2 -2
0 -0 -0 0 -0 -0 -0 0 0 0 -0 0 0 1 1 0 -0 -0 -0 -0 -1 -1 -1 -1 -2 -2 -2 -2 -2 -3 -3 -3 -2 -2 -2 -2 -2 -3
-0 -0 -0 -1 -1 -0 -0 -0 0 0 0 0 0 0 0 0 -0 -1 -1 -1 -1 -1 -2 -2 -2 -3 -3 -2 -2 -2 -4 -2 -2 -2 -2 -3 -3 -3
-1 -1 -1 -1 -1 -0 -0 0 0 0 0 0 0 0 -0 -0 -1 -1 -1 -2 -2 -2 -2 -2 -3 -3 -3 -3 -2 -3 -3 -3 -2 -2 -2 -3 -3 -3
-1 -1 -1 -0 -0 -0 -0 -0 -0 0 0 -0 -0 -0 -1 -1 -1 -1 -2 -2 -2 -3 -3 -3 -3 -3 -3 -3 -3 -3 -2 -3 -3 -2 -3 -3 -3 -3
-1 -1 -1 -0 -0 -0 -0 -0 -1 -0 -0 -0 -0 -0 -1 -1 -2 -2 -2 -3 -3 -3 -3 -3 -3 -3 -3 -3 -3 -3 -2 -2 -2 -2 -3 -2 -2 -2
-2 -1 -1 -1 -1 -0 -1 -1 -1 -1 -1 -1 -1 -1 -1 -2 -2 -3 -3 -3 -4 -4 -3 -3 -3 -3 -3 -3 -3 -3 -2 -3 -3 -3 -3 -3 -3 -3
-2 -2 -2 -1 -1 -1 -1 -2 -2 -2 -2 -1 -2 -2 -2 -2 -3 -3 -4 -4 -4 -4 -4 -3 -4 -3 -3 -3 -3 -3 -3 -3 -3 -3 -3 -3 -3 -3
-2 -2 -2 -2 -2 -1 -2 -2 -2 -2 -2 -3 -3 -3 -3 -3 -3 -4 -4 -4 -4 -4 -4 -4 -4 -4 -4 -4 -4 -4 -4 -4 -4 -4 -3 -4 -4 -3
-3 -2 -2 -2 -2 -2 -2 -2 -2 -3 -3 -3 -4 -4 -4 -4 -4 -4 -4 -4 -4 -4 -4 -4 -4 -4 -4 -5 -5 -5 -6 -6 -6 -5 -4 -4 -4 -4
-4 -3 -3 -3 -3 -2 -2 -2 -2 -3 -4 -4 -4 -4 -4 -4 -4 -4 -5 -5 -5 -4 -4 -5 -5 -5 -5 -5 -6 -6 -7 -7 -6 -7 -6 -5 -5 -5
-4 -3 -3 -3 -3 -2 -2 -3 -3 -4 -4 -5 -5 -5 -5 -5 -5 -5 -5 -5 -5 -5 -5 -5 -5 -5 -5 -6 -6 -6 -6 -7 -7 -7 -7 -6 -5 -5
-4 -4 -3 -3 -3 -3 -3 -3 -4 -4 -5 -5 -5 -6 -6 -6 -6 -6 -5 -5 -5 -6 -6 -6 -6 -5 -6 -6 -6 -6 -6 -6 -6 -6 -6 -6 -6 -5
-4 -5 -5 -4 -4 -4 -4 -4 -4 -5 -5 -5 -6 -7 -7 -6 -6 -6 -6 -6 -6 -7 -7 -7 -6 -6 -6 -6 -6 -6 -6 -6 -6 -6 -6 -6 -6 -6
-5 -5 -5 -5 -4 -4 -5 -5 -5 -5 -6 -6 -6 -7 -7 -7 -7 -6 -6 -7 -7 -7 -7 -7 -6 -6 -6 -6 -6 -6 -6 -6 -6 -6 -6 -6 -6 -6
-6 -6 -6 -5 -5 -5 -6 -6 -6 -6 -6 -6 -7 -7 -7 -7 -7 -7 -7 -7 -7 -7 -7 -6 -6 -6 -7 -6 -6 -6 -6 -6 -7 -7 -7 -7 -7 -7
-6 -6 -7 -7 -6 -6 -6 -6 -6 -7 -7 -7 -7 -7 -7 -7 -7 -7 -7 -7 -7 -7 -7 -7 -7 -7 -7 -6 -6 -6 -7 -7 -7 -7 -7 -7 -7 -7
-7 -7 -8 -7 -7 -7 -7 -7 -7 -7 -7 -7 -7 -7 -8 -8 -7 -7 -7 -7 -7 -7 -7 -7 -7 -7 -7 -7 -7 -7 -8 -8 -8 -8 -8 -8 -8 -8
-8 -8 -8 -8 -8 -8 -8 -8 -8 -8 -8 -8 -8 -8 -8 -8 -8 -8 -8 -8 -8 -8 -8 -8 -9 -9 -9 -9 -9 -9 -9 -10 -10 -10 -9 -9 -9 -9

GFSNE_700_temp_114.txt.gz
Temp
3 3 3 3 3 2 2 1 1 1 1 1 1 0 -0 -0 0 0 1 0 0 0 0 0 0 0 1 0 1 1 1 1 1 1 1 1 1 -0
3 3 3 3 2 2 1 1 0 0 0 -0 -0 0 0 0 0 1 1 1 1 0 0 0 0 0 0 0 0 0 1 1 0 1 1 1 -0 -1
2 2 2 1 1 1 1 0 0 -0 -0 -0 -0 0 0 0 0 0 0 -0 0 0 0 0 1 0 -0 -0 -1 -0 0 0 -0 0 1 -0 -1 -1
2 1 0 1 0 0 0 -0 -0 -0 0 0 1 1 1 0 0 0 0 0 0 0 0 0 -0 0 -0 -1 -1 -1 -1 -1 -1 -1 -1 -1 -1 -2
1 1 0 0 0 0 0 -0 -0 -0 0 1 1 0 1 0 0 0 0 0 0 0 0 0 -0 -0 -1 -1 -2 -2 -1 -1 -1 -2 -1 -1 -1 -2
0 0 -0 -0 -0 -0 -0 -1 -0 -0 0 1 1 1 0 0 0 -0 -0 -0 -0 -0 -0 -0 -1 -1 -1 -2 -2 -3 -3 -3 -3 -2 -2 -2 -2 -2
-0 -0 -1 -1 -1 -1 -1 -1 -0 -0 0 1 1 1 1 1 0 -0 -0 -0 -0 -0 -1 -1 -1 -2 -2 -2 -3 -3 -3 -3 -4 -3 -3 -3 -3 -2
-1 -1 -1 -1 -1 -1 -1 -1 -0 -0 0 1 1 1 0 0 0 -0 -0 -1 -1 -1 -1 -2 -2 -2 -3 -3 -3 -3 -3 -4 -3 -2 -3 -3 -3 -3
-1 -1 -1 -1 -1 -1 -1 -1 -0 -0 -0 -0 -0 -0 -0 -0 -0 -0 -0 -1 -1 -2 -2 -2 -2 -3 -3 -3 -3 -3 -3 -3 -4 -4 -3 -3 -3 -3
-1 -1 -1 -1 -1 -1 -1 -1 -1 -0 -1 -1 -1 -1 -0 -1 -1 -1 -1 -1 -2 -3 -3 -3 -3 -4 -3 -3 -3 -3 -3 -3 -3 -3 -3 -3 -3 -3
-2 -2 -1 -1 -1 -1 -1 -1 -1 -1 -1 -1 -1 -1 -1 -1 -1 -2 -1 -2 -3 -4 -4 -4 -3 -4 -3 -3 -3 -3 -3 -3 -3 -3 -2 -2 -2 -2
-2 -2 -2 -2 -2 -2 -1 -1 -2 -1 -1 -1 -2 -2 -2 -2 -2 -2 -2 -3 -4 -4 -4 -4 -4 -4 -4 -3 -3 -3 -3 -3 -3 -3 -3 -3 -3 -3
-3 -2 -2 -2 -2 -2 -1 -1 -2 -1 -2 -2 -2 -2 -3 -3 -3 -3 -3 -4 -5 -5 -4 -4 -4 -4 -4 -4 -4 -4 -4 -4 -4 -3 -4 -4 -4 -4
-3 -3 -3 -3 -2 -2 -2 -2 -2 -2 -2 -2 -3 -3 -4 -4 -4 -4 -4 -4 -5 -5 -5 -4 -4 -4 -4 -4 -5 -5 -5 -5 -5 -5 -5 -5 -4 -4
-3 -3 -3 -3 -3 -3 -2 -2 -2 -2 -2 -3 -4 -5 -5 -4 -4 -5 -5 -5 -5 -5 -5 -5 -5 -5 -5 -5 -5 -5 -5 -6 -6 -7 -6 -6 -6 -6
-4 -3 -3 -3 -3 -3 -3 -3 -3 -3 -3 -4 -5 -5 -5 -5 -5 -5 -5 -5 -5 -5 -5 -5 -5 -5 -5 -5 -6 -6 -6 -6 -7 -7 -7 -7 -7 -7
-4 -4 -4 -3 -3 -3 -3 -3 -4 -4 -4 -5 -5 -6 -6 -6 -6 -6 -6 -6 -6 -6 -6 -6 -6 -6 -6 -7 -7 -6 -6 -6 -7 -6 -6 -6 -7 -7
-4 -4 -4 -3 -3 -4 -4 -4 -5 -5 -5 -5 -6 -6 -6 -7 -7 -6 -6 -6 -6 -6 -6 -7 -7 -7 -8 -7 -6 -6 -6 -6 -6 -6 -6 -6 -6 -6
-5 -4 -4 -4 -5 -5 -5 -5 -5 -5 -6 -6 -6 -6 -7 -7 -7 -7 -7 -7 -7 -6 -7 -7 -8 -8 -8 -7 -7 -6 -6 -6 -6 -6 -6 -6 -6 -6
-5 -5 -5 -6 -6 -6 -6 -6 -6 -6 -7 -7 -7 -7 -7 -7 -7 -7 -7 -7 -7 -7 -7 -7 -8 -8 -8 -7 -6 -6 -6 -7 -6 -6 -6 -6 -6 -6
-6 -6 -7 -7 -7 -7 -7 -7 -7 -7 -7 -7 -8 -8 -7 -7 -7 -7 -7 -8 -7 -7 -7 -8 -8 -7 -7 -7 -7 -7 -7 -7 -7 -7 -7 -7 -7 -7
-7 -7 -7 -7 -7 -8 -8 -8 -8 -8 -8 -8 -8 -8 -8 -8 -8 -8 -8 -8 -7 -7 -8 -8 -8 -8 -7 -7 -7 -7 -8 -8 -8 -8 -8 -8 -8 -8
-7 -8 -8 -8 -8 -8 -8 -8 -8 -8 -8 -8 -8 -8 -8 -8 -8 -8 -8 -8 -8 -8 -8 -8 -9 -9 -9 -9 -9 -9 -9 -9 -9 -9 -9 -9 -9 -9

GFSNE_700_temp_117.txt.gz
Temp
2 2 2 3 3 3 2 2 2 1 1 1 1 1 1 1 1 1 1 1 1 1 0 1 1 1 1 1 1 1 1 2 1 2 2 1 1 0
1 2 2 3 3 3 2 2 1 1 1 1 1 0 0 -0 0 1 1 1 1 1 1 1 1 1 1 1 1 1 2 1 1 1 1 1 1 0
2 2 2 3 2 2 1 1 1 1 1 1 0 0 0 0 0 0 0 0 0 1 1 1 1 1 1 1 1 0 1 1 1 1 1 0 0 0
2 2 2 2 1 1 1 -0 0 0 0 0 0 0 0 0 0 1 1 1 0 1 1 1 1 0 1 1 0 -0 1 0 0 -0 0 -0 -1 -1
2 2 2 1 1 1 0 -0 0 0 0 -0 -0 0 0 0 0 0 0 0 0 1 1 1 1 0 -0 -0 -0 -1 -0 -1 -1 -1 -1 -1 -1 -2
1 1 1 0 0 -0 -0 -0 0 -0 -0 -0 0 0 0 0 1 0 0 0 0 0 0 1 0 -0 -1 -1 -1 -1 -1 -2 -3 -2 -2 -2 -2 -3
1 1 0 0 -0 -0 -0 -0 -0 -0 -0 -0 -0 0 0 0 0 -0 0 0 -0 -0 0 -0 -0 -0 -1 -1 -2 -2 -2 -2 -3 -3 -3 -3 -2 -2
1 0 -0 -1 -1 -1 -1 -1 -1 -1 -0 -0 -0 0 -0 -0 -0 -0 -0 -0 -0 -0 -0 -1 -1 -1 -1 -2 -2 -3 -3 -4 -4 -4 -4 -3 -3 -3
-0 -1 -1 -1 -1 -1 -1 -1 -1 -1 -1 -1 -0 -0 -0 -0 -0 -0 -0 -1 -1 -1 -1 -1 -1 -2 -2 -2 -3 -3 -3 -3 -4 -5 -4 -3 -3 -4
-1 -1 -2 -1 -1 -1 -1 -1 -1 -1 -0 -0 -1 -1 -1 -1 -1 -1 -0 -0 -1 -1 -2 -2 -2 -2 -3 -3 -3 -3 -3 -3 -4 -4 -4 -3 -3 -4
-2 -2 -2 -2 -2 -1 -1 -1 -1 -1 -1 -1 -1 -2 -2 -1 -1 -1 -1 -1 -2 -2 -3 -3 -3 -3 -3 -3 -3 -3 -3 -3 -3 -3 -4 -4 -4 -4
-3 -3 -2 -2 -2 -2 -2 -2 -2 -1 -1 -1 -2 -2 -2 -2 -2 -2 -2 -2 -3 -3 -3 -4 -4 -4 -4 -3 -3 -3 -3 -3 -3 -4 -3 -3 -3 -4
-3 -2 -2 -2 -2 -2 -2 -2 -2 -2 -2 -2 -2 -2 -2 -3 -3 -3 -3 -3 -3 -4 -4 -4 -4 -4 -4 -4 -4 -4 -4 -4 -4 -4 -3 -4 -4 -4
-3 -3 -4 -3 -3 -3 -3 -3 -2 -2 -2 -2 -2 -2 -2 -3 -3 -4 -4 -4 -4 -4 -4 -4 -4 -4 -4 -4 -4 -4 -4 -4 -5 -5 -4 -4 -4 -4
-4 -4 -4 -3 -4 -3 -3 -3 -3 -3 -3 -3 -3 -3 -3 -3 -4 -4 -4 -4 -4 -4 -4 -5 -5 -5 -5 -5 -5 -5 -5 -5 -6 -6 -6 -6 -6 -5
-5 -4 -4 -4 -4 -3 -3 -3 -3 -3 -3 -3 -3 -3 -3 -4 -4 -5 -5 -5 -5 -5 -5 -5 -5 -5 -5 -5 -6 -7 -6 -6 -6 -7 -8 -8 -7 -7
-4 -5 -4 -4 -4 -4 -4 -4 -3 -3 -4 -4 -4 -4 -4 -5 -5 -5 -5 -6 -5 -5 -5 -5 -5 -5 -6 -6 -7 -7 -7 -7 -7 -7 -8 -7 -8 -7
-5 -5 -4 -4 -4 -4 -4 -3 -4 -4 -5 -4 -4 -4 -5 -5 -5 -6 -6 -7 -6 -6 -6 -6 -6 -6 -7 -7 -8 -8 -8 -8 -8 -8 -7 -8 -8 -7
-5 -5 -5 -5 -5 -4 -4 -4 -5 -5 -5 -5 -5 -5 -6 -6 -6 -6 -7 -7 -7 -7 -7 -7 -7 -7 -7 -8 -8 -8 -8 -7 -7 -7 -7 -7 -7 -7
-5 -5 -5 -5 -5 -5 -5 -6 -6 -6 -6 -6 -6 -6 -6 -6 -7 -7 -7 -7 -7 -7 -7 -7 -7 -7 -7 -7 -8 -9 -9 -8 -7 -7 -7 -7 -7 -7
-6 -6 -6 -6 -6 -5 -6 -6 -6 -6 -6 -7 -7 -7 -7 -7 -7 -8 -8 -8 -8 -8 -8 -8 -8 -8 -8 -8 -8 -9 -8 -8 -8 -7 -7 -7 -7 -7
-6 -6 -6 -7 -6 -6 -7 -7 -7 -7 -7 -7 -7 -7 -8 -8 -8 -8 -8 -8 -8 -8 -8 -8 -8 -8 -8 -8 -8 -8 -8 -8 -8 -8 -8 -8 -8 -7
-7 -7 -7 -7 -7 -7 -7 -8 -8 -8 -8 -8 -8 -8 -8 -8 -8 -8 -8 -8 -8 -8 -8 -9 -9 -9 -9 -9 -9 -8 -9 -9 -9 -9 -9 -9 -8 -8

GFSNE_700_temp_120.txt.gz
Temp
2 3 3 2 2 1 1 2 2 2 1 2 0 1 1 1 1 1 1 1 1 1 1 1 1 2 2 2 2 2 2 2 2 3 2 2 2 1
2 2 2 2 1 1 2 2 2 1 1 1 1 1 1 1 1 1 1 1 1 1 1 1 1 2 1 1 1 1 1 2 2 2 2 1 1 1
2 2 1 2 1 2 2 2 2 1 1 1 1 1 1 1 1 1 1 1 1 1 1 1 1 1 1 1 1 1 1 1 1 2 1 1 1 1
2 1 1 1 2 2 2 2 1 1 0 0 0 0 0 0 1 1 1 1 1 1 1 1 1 1 1 1 1 0 0 1 1 1 0 0 0 0
1 0 1 1 2 1 1 1 0 0 0 0 0 0 0 0 1 1 1 1 1 1 1 1 1 1 1 1 1 0 -0 -1 0 -0 -1 -0 -0 -0
1 1 1 1 1 1 1 0 0 0 0 0 0 0 0 0 0 0 0 1 0 0 0 1 1 1 0 1 0 -0 -1 -2 -1 -1 -2 -2 -1 -1
1 1 1 0 1 -0 -0 -0 -0 -0 -0 -0 -0 -0 -0 0 0 0 0 0 0 1 0 0 0 0 0 0 -0 -1 -1 -2 -4 -3 -2 -3 -2 -3
1 1 -0 0 1 -0 -1 -1 -1 -1 -1 -1 -0 -0 -0 -0 0 0 0 0 -0 0 0 0 0 -0 -0 -0 -1 -2 -3 -3 -4 -4 -3 -3 -3 -3
1 -0 0 -0 -0 -1 -1 -1 -1 -1 -1 -1 -1 -1 -0 -0 -0 -0 -0 -0 -0 -0 -0 -1 -1 -1 -1 -1 -2 -2 -3 -3 -3 -4 -4 -3 -4 -4
0 -1 -0 -1 -1 -1 -1 -1 -1 -1 -1 -1 -1 -1 -1 -1 -1 -1 -1 -1 -1 -1 -1 -1 -1 -1 -2 -2 -3 -3 -3 -3 -4 -5 -5 -4 -5 -5
-0 -1 -2 -2 -2 -2 -2 -2 -2 -2 -2 -1 -1 -1 -1 -1 -1 -1 -1 -1 -1 -1 -2 -2 -2 -2 -2 -3 -3 -3 -3 -3 -3 -4 -4 -4 -5 -4
-1 -1 -2 -3 -3 -2 -3 -3 -2 -2 -2 -2 -2 -1 -2 -2 -2 -2 -2 -2 -2 -2 -3 -3 -3 -3 -3 -3 -3 -3 -3 -3 -4 -4 -3 -4 -4 -4
-2 -2 -3 -3 -3 -3 -3 -3 -3 -2 -2 -2 -2 -2 -2 -2 -2 -2 -3 -3 -3 -3 -3 -4 -4 -4 -4 -4 -4 -4 -3 -3 -3 -3 -3 -4 -4 -4
-3 -3 -4 -4 -5 -4 -3 -3 -3 -3 -3 -2 -2 -2 -2 -2 -3 -3 -3 -3 -3 -4 -4 -4 -4 -4 -4 -4 -4 -4 -4 -4 -4 -4 -4 -4 -4 -4
-4 -4 -4 -5 -4 -4 -4 -4 -4 -3 -3 -3 -3 -2 -3 -3 -3 -3 -4 -4 -4 -4 -4 -4 -4 -4 -4 -4 -4 -4 -5 -5 -5 -5 -5 -5 -6 -5
-4 -5 -5 -4 -4 -4 -4 -4 -4 -3 -3 -3 -3 -3 -3 -3 -3 -4 -4 -4 -5 -5 -5 -5 -4 -5 -5 -5 -5 -5 -6 -6 -6 -6 -6 -6 -7 -7
-5 -5 -5 -5 -5 -4 -5 -4 -4 -4 -4 -3 -3 -4 -4 -4 -4 -4 -5 -5 -5 -5 -5 -5 -5 -5 -5 -6 -6 -6 -6 -6 -7 -7 -7 -7 -8 -8
-6 -5 -5 -5 -5 -5 -5 -5 -4 -4 -4 -4 -5 -5 -5 -5 -5 -4 -5 -5 -6 -6 -6 -6 -6 -6 -6 -6 -6 -6 -7 -7 -7 -7 -8 -8 -8 -8
-5 -5 -5 -5 -5 -5 -5 -5 -5 -4 -4 -5 -5 -5 -5 -5 -5 -5 -5 -6 -6 -6 -7 -7 -7 -7 -7 -7 -7 -7 -7 -8 -8 -8 -8 -8 -8 -7
-4 -5 -5 -5 -5 -5 -5 -5 -5 -5 -5 -6 -6 -6 -6 -5 -6 -6 -6 -6 -7 -7 -7 -7 -7 -7 -7 -7 -7 -8 -8 -8 -8 -8 -8 -8 -7 -8
-5 -5 -6 -6 -6 -6 -6 -6 -6 -6 -6 -6 -6 -6 -6 -6 -6 -7 -7 -7 -7 -7 -8 -8 -8 -7 -7 -8 -8 -9 -9 -9 -8 -8 -8 -8 -8 -8
-6 -6 -6 -6 -6 -6 -7 -7 -7 -7 -7 -7 -7 -7 -6 -7 -7 -7 -7 -7 -7 -8 -8 -8 -8 -8 -8 -8 -8 -8 -8 -9 -9 -8 -8 -8 -8 -8
-7 -7 -7 -7 -6 -7 -7 -7 -7 -7 -7 -7 -7 -7 -7 -8 -8 -8 -8 -8 -8 -8 -8 -9 -8 -8 -9 -9 -8 -9 -9 -9 -9 -9 -9 -9 -9 -9

GFSNE_700_temp_123.txt.gz
Temp
1 2 2 2 2 3 3 3 2 2 1 1 1 1 1 1 1 1 1 1 1 1 2 2 2 2 2 2 2 2 2 2 2 2 3 3 2 2
2 2 2 2 3 2 2 2 1 1 1 0 1 1 1 1 1 1 1 1 2 2 2 2 1 2 1 2 2 1 2 2 2 2 2 2 2 2
1 1 2 1 1 1 1 1 1 0 0 1 1 0 1 1 1 1 1 1 1 1 2 2 1 2 2 2 1 1 1 1 2 1 2 2 1 1
1 1 2 1 2 2 1 0 -0 1 1 1 0 0 0 1 1 1 1 1 1 1 1 2 1 1 1 1 1 1 1 1 1 1 1 1 1 0
1 1 1 1 0 1 0 -0 0 1 0 -0 -0 0 1 1 1 0 0 1 1 1 1 1 1 1 1 1 1 1 1 0 1 1 1 0 -0 -1
1 1 1 0 0 -0 0 0 0 1 -0 -1 0 0 0 0 0 0 0 0 1 1 1 1 1 1 1 1 0 0 0 -0 -0 0 -1 -1 -2 -2
0 1 0 0 1 0 1 0 -0 -0 -0 -0 -0 -0 0 0 0 -0 0 0 0 0 0 0 0 0 0 0 0 -0 -1 -1 -2 -4 -3 -3 -2 -2
-0 0 1 1 0 -0 1 -0 -1 -1 -1 -1 -0 -0 0 -0 -0 -0 0 0 0 -0 0 0 0 0 0 0 -0 -1 -1 -2 -3 -3 -4 -4 -3 -3
0 1 1 0 0 -1 -0 -1 -1 -1 -1 -1 -1 -1 -1 -1 -1 -0 -0 -0 -0 -0 -0 -0 -0 -0 -0 -1 -1 -1 -2 -2 -3 -4 -4 -4 -4 -4
0 0 -0 -1 -0 -0 -1 -1 -1 -2 -2 -2 -1 -1 -1 -1 -1 -1 -1 -1 -1 -1 -1 -1 -1 -0 -1 -1 -2 -2 -2 -3 -4 -5 -5 -5 -5 -4
-0 -0 -1 -1 -2 -2 -2 -2 -1 -2 -2 -2 -2 -2 -1 -1 -1 -1 -1 -1 -1 -2 -1 -1 -1 -1 -2 -2 -3 -3 -3 -3 -4 -4 -5 -4 -5 -5
-1 -1 -2 -1 -1 -2 -2 -2 -2 -2 -3 -2 -2 -2 -2 -2 -2 -2 -2 -2 -2 -2 -2 -2 -2 -2 -3 -3 -4 -3 -3 -4 -4 -4 -4 -4 -5 -4
-2 -2 -2 -2 -2 -2 -2 -3 -2 -3 -3 -2 -2 -2 -2 -2 -2 -2 -2 -2 -2 -3 -3 -3 -3 -3 -3 -4 -4 -4 -4 -4 -4 -4 -4 -4 -4 -4
-1 -2 -2 -2 -2 -2 -3 -3 -3 -4 -3 -3 -3 -3 -3 -2 -2 -2 -2 -2 -3 -3 -3 -3 -4 -4 -4 -4 -4 -4 -4 -4 -4 -4 -4 -4 -4 -4
-3 -3 -3 -3 -3 -3 -4 -4 -4 -4 -4 -4 -4 -3 -3 -3 -3 -3 -3 -3 -3 -4 -4 -4 -4 -4 -4 -5 -5 -4 -5 -5 -4 -4 -5 -5 -5 -5
-4 -4 -4 -4 -4 -4 -3 -4 -4 -4 -4 -4 -4 -3 -3 -3 -3 -3 -3 -3 -4 -4 -4 -4 -5 -5 -5 -5 -5 -5 -5 -5 -5 -5 -5 -6 -5 -6
-5 -5 -5 -5 -5 -5 -4 -4 -5 -4 -4 -4 -4 -4 -4 -3 -4 -4 -4 -4 -4 -4 -5 -5 -5 -5 -5 -5 -5 -6 -6 -6 -6 -6 -6 -6 -7 -7
-5 -5 -5 -5 -6 -5 -4 -5 -5 -5 -5 -5 -5 -4 -4 -4 -4 -5 -5 -5 -5 -5 -5 -6 -6 -6 -6 -6 -6 -6 -6 -6 -6 -7 -7 -7 -7 -7
-5 -5 -4 -5 -6 -5 -5 -5 -5 -5 -5 -5 -5 -5 -4 -5 -5 -5 -5 -5 -5 -5 -6 -6 -7 -6 -7 -7 -6 -7 -7 -7 -7 -7 -8 -7 -8 -8
-5 -4 -5 -5 -5 -6 -5 -5 -6 -6 -5 -5 -5 -5 -5 -5 -5 -5 -5 -6 -6 -6 -6 -7 -7 -7 -7 -7 -7 -7 -7 -7 -7 -8 -8 -8 -8 -9
-5 -5 -5 -5 -5 -5 -5 -5 -6 -6 -6 -6 -5 -6 -6 -6 -6 -6 -6 -6 -6 -7 -7 -8 -7 -7 -7 -8 -8 -7 -8 -8 -8 -8 -8 -9 -9 -9
-6 -6 -6 -6 -6 -6 -6 -6 -6 -7 -6 -6 -6 -6 -6 -7 -7 -7 -7 -7 -7 -7 -8 -8 -8 -8 -8 -8 -8 -8 -8 -8 -8 -8 -8 -8 -8 -8
-6 -7 -6 -7 -7 -7 -7 -7 -7 -7 -7 -7 -7 -7 -7 -7 -7 -7 -7 -8 -8 -8 -8 -9 -9 -9 -8 -8 -8 -8 -8 -8 -8 -8 -9 -9 -9 -9

GFSNE_700_temp_126.txt.gz
Temp
2 2 2 2 1 1 1 2 2 2 2 2 2 2 1 0 1 0 0 0 1 1 1 1 2 1 2 2 2 2 3 2 2 2 2 2 2 3
1 2 1 1 1 1 1 2 2 2 2 1 1 0 0 0 0 -0 0 1 1 1 1 2 2 2 2 2 2 2 2 2 2 2 2 2 2 2
1 1 1 1 1 1 1 1 1 1 2 1 1 0 -0 0 0 0 1 1 1 1 1 1 2 2 2 2 2 2 2 2 2 2 2 2 2 2
1 1 0 0 1 1 1 1 2 1 1 1 0 0 0 -0 -0 -0 1 1 1 1 1 2 2 2 2 2 2 2 1 1 1 1 1 1 1 1
0 0 0 0 1 0 1 0 1 1 0 1 1 -0 -0 -1 -1 0 0 0 1 1 1 1 2 2 2 1 1 1 1 1 1 1 0 0 -0 -0
1 1 1 1 0 0 0 1 1 0 0 0 -0 -1 -1 -1 0 0 0 0 0 1 1 1 1 1 1 1 1 0 0 0 0 0 0 -1 -1 -1
0 0 0 1 0 0 0 0 0 -0 1 -0 -0 -0 -1 -0 -0 0 0 -0 0 1 1 1 1 1 1 1 0 0 -0 -0 -0 -1 -2 -4 -3 -2
1 0 0 0 0 0 0 0 -0 -0 -1 -0 -1 -1 -1 -1 -0 -0 -0 -0 0 0 0 0 0 0 0 -0 -0 -0 -1 -1 -1 -2 -5 -4 -4 -5
0 -1 -1 -1 -1 1 -0 -1 -1 -1 -1 -1 -1 -1 -1 -1 -1 -1 -0 -0 -0 -0 -0 -1 -0 -1 -0 -0 -1 -1 -1 -2 -2 -3 -5 -4 -4 -4
-1 -1 -1 -1 -1 -1 -1 -0 -1 -1 -1 -1 -1 -2 -1 -1 -1 -1 -1 -1 -1 -1 -1 -1 -1 -1 -1 -1 -1 -1 -2 -2 -3 -3 -5 -5 -5 -4
-2 -1 -2 -2 -1 -1 -1 -1 -1 -2 -2 -2 -3 -2 -2 -2 -2 -1 -1 -1 -1 -1 -1 -1 -1 -2 -2 -2 -2 -2 -2 -2 -3 -4 -5 -5 -5 -5
-3 -3 -2 -2 -2 -2 -2 -2 -2 -2 -3 -3 -2 -2 -2 -2 -2 -2 -2 -2 -2 -2 -2 -2 -2 -2 -2 -2 -2 -3 -3 -3 -4 -4 -5 -5 -6 -5
-3 -3 -3 -3 -3 -2 -2 -2 -2 -3 -3 -3 -3 -3 -3 -3 -3 -2 -2 -2 -2 -2 -2 -2 -3 -3 -3 -3 -3 -3 -3 -3 -4 -4 -4 -4 -4 -4
-2 -3 -3 -3 -3 -3 -3 -3 -3 -3 -3 -3 -3 -3 -3 -3 -3 -3 -3 -2 -2 -2 -3 -3 -3 -3 -4 -3 -3 -4 -4 -4 -4 -4 -4 -4 -4 -4
-2 -4 -3 -3 -3 -3 -3 -3 -3 -3 -3 -4 -4 -3 -3 -4 -3 -3 -3 -3 -3 -3 -3 -4 -4 -4 -4 -4 -4 -4 -4 -4 -4 -4 -4 -4 -5 -5
-4 -4 -4 -4 -3 -3 -3 -3 -3 -4 -4 -4 -4 -4 -4 -4 -4 -3 -3 -3 -3 -4 -4 -4 -4 -4 -4 -4 -4 -4 -5 -5 -5 -5 -5 -5 -5 -5
-5 -5 -4 -4 -4 -4 -4 -4 -4 -4 -4 -5 -4 -4 -4 -5 -4 -4 -4 -4 -4 -4 -4 -4 -5 -5 -5 -5 -5 -5 -5 -5 -6 -6 -6 -6 -6 -6
-6 -5 -5 -5 -5 -5 -4 -4 -5 -5 -5 -5 -5 -5 -5 -5 -5 -5 -4 -4 -5 -5 -5 -5 -5 -5 -5 -5 -5 -6 -6 -6 -6 -6 -7 -7 -7 -7
-6 -6 -6 -5 -5 -5 -5 -5 -5 -5 -5 -5 -5 -5 -5 -5 -5 -5 -5 -5 -5 -5 -5 -5 -5 -6 -6 -6 -6 -6 -6 -6 -7 -7 -8 -8 -8 -8
-7 -6 -6 -5 -6 -6 -5 -5 -6 -5 -5 -5 -5 -5 -5 -5 -5 -5 -5 -5 -5 -6 -6 -6 -6 -6 -6 -7 -7 -7 -7 -7 -7 -8 -8 -8 -8 -8
-7 -6 -6 -6 -6 -6 -6 -6 -5 -6 -6 -6 -6 -6 -6 -5 -5 -6 -6 -6 -6 -6 -6 -6 -6 -7 -7 -7 -7 -7 -7 -7 -8 -8 -8 -8 -9 -9
-7 -7 -7 -7 -7 -6 -6 -6 -6 -6 -6 -6 -6 -6 -6 -6 -6 -6 -6 -7 -7 -7 -7 -7 -7 -7 -8 -8 -8 -8 -8 -8 -8 -8 -8 -9 -9 -9
-8 -8 -7 -7 -7 -7 -7 -7 -6 -6 -7 -7 -7 -7 -7 -7 -7 -7 -7 -7 -7 -7 -7 -8 -8 -8 -8 -9 -9 -9 -9 -9 -9 -9 -9 -9 -9 -9